Flag for U.S.A. Weather past 2 weeks in Angels Camp, California, U.S.A.

Now
95 °F

Sunny.


Feels Like: 91 °F
Forecast: 60 / 102 °F
Wind: No wind

Location: Modesto City-County-Sham Field

Current Time: Aug 28, 2015 at 12:50:20 PM

Latest Report: Aug 28, 2015 at 11:53 AM


Visibility: 10 mi

Pressure: 29.88 "Hg

Humidity: 20%

Dew point: 48 °F

Location of Angels CampLocation

Historic Weather in Angels Camp — Graph

°F

Angels Camp temperature yesterday

Maximum temperature yesterday: 102 °F (at 4:53 PM)
Minimum temperature yesterday: 72 °F (at 6:53 AM)
Average temperature yesterday: 86 °F

Past Weeks' High & Low Weather Summary

 TemperatureHumidityPressure
High105 °F (Aug 17, 3:53 PM)78% (Aug 14, 5:53 AM)30.04 "Hg (Aug 14, 5:53 AM)
Low61 °F (Aug 22, 6:53 AM)12% (Aug 15, 5:53 PM)29.72 "Hg (Aug 17, 5:53 PM)
Average80 °F40%29.88 "Hg
* Reported Aug 13 11:53 AM — Aug 28 11:53 AM, Angels Camp, Weather by CustomWeather, © 2015

Note: Actual official high and low records may vary slightly from our data, if they occured in-between our weather recording intervals... More about our weather records

Advertising

Angels Camp weather history for previous 24 hours

 ConditionsComfort  
Time TempWeatherWind HumidityBarometerVisibility
11:53 AM
Fri, Aug 28
95 °FSunny.No wind20%29.88 "Hg10 mi
10:53 AM91 °FSunny.3 mph24%29.89 "Hg10 mi
9:53 AM86 °FSunny.5 mph29%29.89 "Hg10 mi
8:53 AM81 °FSunny.No wind38%29.89 "Hg10 mi
7:53 AM74 °FSunny.No wind50%29.89 "Hg10 mi
6:53 AM70 °FClear.No wind57%29.88 "Hg10 mi
5:53 AM74 °FClear.5 mph45%29.88 "Hg10 mi
4:53 AM74 °FClear.3 mph45%29.88 "Hg10 mi
3:53 AM72 °FClear.7 mph52%29.89 "Hg10 mi
2:53 AM75 °FClear.7 mph45%29.89 "Hg10 mi
1:53 AM76 °FClear.3 mph40%29.90 "Hg10 mi
12:53 AM78 °FClear.5 mph37%29.90 "Hg10 mi
11:53 PM
Thu, Aug 27
81 °FClear.6 mph33%29.90 "Hg10 mi
10:53 PM83 °FClear.7 mph31%29.91 "Hg10 mi
9:53 PM85 °FClear.15 mph28%29.91 "Hg10 mi
8:53 PM88 °FClear.13 mph23%29.90 "Hg10 mi
7:53 PM91 °FSunny.17 mph20%29.88 "Hg10 mi
6:53 PM97 °FPassing clouds.20 mph16%29.88 "Hg10 mi
5:53 PM101 °FScattered clouds.15 mph15%29.88 "Hg10 mi
4:53 PM102 °FPassing clouds.13 mph13%29.89 "Hg10 mi
3:53 PM101 °FScattered clouds.13 mph14%29.91 "Hg10 mi
2:53 PM100 °FPassing clouds.10 mph15%29.94 "Hg10 mi
1:53 PM99 °FSunny.12 mph15%29.96 "Hg10 mi
12:53 PM96 °FSunny.14 mph17%29.98 "Hg10 mi
Weather by CustomWeather, © 2015

See weather overviewHow to use our weather pages